Time,TemperatureF,DewpointF,PressureIn,WindDirection,WindDirectionDegrees,WindSpeedMPH,WindSpeedGustMPH,Humidity,HourlyPrecipIn,Conditions,Clouds,dailyrainin,SoftwareType,DateUTC
2013-03-01 00:01:00,31.0,17.0,-100.00,South,179,1.0,5.0,56,-99.99,,,-99.99,,2013-03-01 07:01:00,
2013-03-01 00:11:00,32.0,15.0,-100.00,West,280,4.0,5.0,50,-99.99,,,-99.99,,2013-03-01 07:11:00,
2013-03-01 00:21:00,32.0,18.0,-100.00,SW,221,2.0,10.0,54,-99.99,,,-99.99,,2013-03-01 07:21:00,
2013-03-01 00:32:00,32.0,17.0,-100.00,ESE,107,4.0,4.0,54,-99.99,,,-99.99,,2013-03-01 07:32:00,
2013-03-01 00:42:00,31.0,17.0,-100.00,SSE,166,2.0,5.0,55,-99.99,,,-99.99,,2013-03-01 07:42:00,
2013-03-01 00:51:00,31.0,17.0,-100.00,SSE,166,2.0,5.0,55,-99.99,,,-99.99,,2013-03-01 07:51:00,
2013-03-01 01:01:00,32.0,16.0,-100.00,WNW,298,10.0,12.0,51,-99.99,,,-99.99,,2013-03-01 08:01:00,
2013-03-01 01:11:00,32.0,17.0,-100.00,WNW,301,12.0,14.0,51,-99.99,,,-99.99,,2013-03-01 08:11:00,
2013-03-01 01:21:00,32.0,17.0,-100.00,WNW,301,12.0,14.0,51,-99.99,,,-99.99,,2013-03-01 08:21:00,
2013-03-01 01:32:00,33.0,18.0,-100.00,WNW,298,15.0,18.0,55,-99.99,,,-99.99,,2013-03-01 08:32:00,
2013-03-01 01:42:00,32.0,19.0,-100.00,WNW,288,9.0,14.0,57,-99.99,,,-99.99,,2013-03-01 08:42:00,
2013-03-01 01:52:00,32.0,19.0,-100.00,WNW,288,9.0,14.0,57,-99.99,,,-99.99,,2013-03-01 08:52:00,
2013-03-01 02:02:00,32.0,21.0,-100.00,WNW,291,16.0,21.0,61,-99.99,,,-99.99,,2013-03-01 09:02:00,
2013-03-01 02:11:00,32.0,21.0,-100.00,WNW,291,16.0,21.0,61,-99.99,,,-99.99,,2013-03-01 09:11:00,
2013-03-01 02:21:00,32.0,21.0,-100.00,WNW,299,12.0,17.0,61,-99.99,,,-99.99,,2013-03-01 09:21:00,
2013-03-01 02:31:00,32.0,21.0,-100.00,WNW,303,13.0,14.0,62,-99.99,,,-99.99,,2013-03-01 09:31:00,
2013-03-01 02:41:00,32.0,21.0,-100.00,WNW,300,7.0,13.0,63,-99.99,,,-99.99,,2013-03-01 09:41:00,
2013-03-01 02:52:00,32.0,21.0,-100.00,WNW,300,7.0,13.0,63,-99.99,,,-99.99,,2013-03-01 09:52:00,
2013-03-01 03:01:00,32.0,21.0,-100.00,ENE,61,6.0,7.0,63,-99.99,,,-99.99,,2013-03-01 10:01:00,
2013-03-01 03:11:00,32.0,21.0,-100.00,ENE,61,6.0,7.0,63,-99.99,,,-99.99,,2013-03-01 10:11:00,
2013-03-01 03:21:00,32.0,20.0,-100.00,ENE,64,6.0,7.0,62,-99.99,,,-99.99,,2013-03-01 10:21:00,
2013-03-01 03:32:00,32.0,20.0,-100.00,NNE,20,4.0,7.0,60,-99.99,,,-99.99,,2013-03-01 10:32:00,
2013-03-01 03:41:00,32.0,21.0,-100.00,NW,317,7.0,8.0,62,-99.99,,,-99.99,,2013-03-01 10:41:00,
2013-03-01 03:52:00,32.0,21.0,-100.00,NW,317,7.0,8.0,62,-99.99,,,-99.99,,2013-03-01 10:52:00,
2013-03-01 04:01:00,32.0,21.0,-100.00,NW,321,7.0,11.0,62,-99.99,,,-99.99,,2013-03-01 11:01:00,
2013-03-01 04:11:00,32.0,21.0,-100.00,NW,308,8.0,12.0,62,-99.99,,,-99.99,,2013-03-01 11:11:00,
2013-03-01 04:22:00,32.0,21.0,-100.00,NW,308,8.0,12.0,62,-99.99,,,-99.99,,2013-03-01 11:22:00,
2013-03-01 04:32:00,32.0,21.0,-100.00,WNW,294,10.0,12.0,63,-99.99,,,-99.99,,2013-03-01 11:32:00,
2013-03-01 04:41:00,32.0,20.0,-100.00,WNW,291,10.0,14.0,62,-99.99,,,-99.99,,2013-03-01 11:41:00,
2013-03-01 04:52:00,32.0,20.0,-100.00,WNW,291,10.0,14.0,62,-99.99,,,-99.99,,2013-03-01 11:52:00,
2013-03-01 05:01:00,32.0,21.0,-100.00,NNE,12,7.0,8.0,62,-99.99,,,-99.99,,2013-03-01 12:01:00,
2013-03-01 05:11:00,32.0,21.0,-100.00,NNW,344,7.0,8.0,63,-99.99,,,-99.99,,2013-03-01 12:11:00,
2013-03-01 05:21:00,32.0,21.0,-100.00,NNW,344,7.0,8.0,63,-99.99,,,-99.99,,2013-03-01 12:21:00,
2013-03-01 05:32:00,32.0,21.0,-100.00,NNW,339,8.0,11.0,63,-99.99,,,-99.99,,2013-03-01 12:32:00,
2013-03-01 05:42:00,32.0,22.0,-100.00,NNW,343,7.0,10.0,64,-99.99,,,-99.99,,2013-03-01 12:42:00,
2013-03-01 05:52:00,32.0,22.0,-100.00,NNW,343,7.0,10.0,64,-99.99,,,-99.99,,2013-03-01 12:52:00,
2013-03-01 06:01:00,32.0,22.0,-100.00,North,3,7.0,7.0,65,-99.99,,,-99.99,,2013-03-01 13:01:00,
2013-03-01 06:11:00,32.0,22.0,-100.00,North,3,7.0,7.0,65,-99.99,,,-99.99,,2013-03-01 13:11:00,
2013-03-01 06:21:00,32.0,22.0,-100.00,NNW,335,8.0,8.0,63,-99.99,,,-99.99,,2013-03-01 13:21:00,
2013-03-01 06:32:00,33.0,22.0,-100.00,NNW,348,8.0,10.0,64,-99.99,,,-99.99,,2013-03-01 13:32:00,
2013-03-01 06:41:00,33.0,22.0,-100.00,NNW,348,8.0,10.0,64,-99.99,,,-99.99,,2013-03-01 13:41:00,
2013-03-01 06:51:00,32.0,22.0,-100.00,NNW,347,8.0,9.0,65,-99.99,,,-99.99,,2013-03-01 13:51:00,
2013-03-01 07:01:00,32.0,22.0,-100.00,NNW,347,8.0,9.0,65,-99.99,,,-99.99,,2013-03-01 14:01:00,
2013-03-01 07:11:00,32.0,23.0,-100.00,NNW,333,10.0,11.0,68,-99.99,,,-99.99,,2013-03-01 14:11:00,
2013-03-01 07:21:00,32.0,23.0,-100.00,NNW,333,10.0,11.0,68,-99.99,,,-99.99,,2013-03-01 14:21:00,
2013-03-01 07:32:00,32.0,23.0,-100.00,NNW,333,10.0,11.0,68,-99.99,,,-99.99,,2013-03-01 14:32:00,
2013-03-01 07:41:00,32.0,24.0,-100.00,North,0,7.0,9.0,71,-99.99,,,-99.99,,2013-03-01 14:41:00,
2013-03-01 07:52:00,32.0,24.0,-100.00,North,0,7.0,9.0,71,-99.99,,,-99.99,,2013-03-01 14:52:00,
2013-03-01 08:01:00,33.0,24.0,-100.00,NNW,348,9.0,10.0,70,-99.99,,,-99.99,,2013-03-01 15:01:00,
2013-03-01 08:11:00,33.0,24.0,-100.00,NNW,348,9.0,10.0,70,-99.99,,,-99.99,,2013-03-01 15:11:00,
2013-03-01 08:21:00,33.0,24.0,-100.00,NNW,336,8.0,10.0,69,-99.99,,,-99.99,,2013-03-01 15:21:00,
2013-03-01 08:31:00,33.0,25.0,-100.00,WNW,298,11.0,11.0,71,-99.99,,,-99.99,,2013-03-01 15:31:00,
2013-03-01 08:42:00,33.0,25.0,-100.00,WNW,298,11.0,11.0,71,-99.99,,,-99.99,,2013-03-01 15:42:00,
2013-03-01 08:52:00,33.0,25.0,-100.00,NW,309,11.0,13.0,71,-99.99,,,-99.99,,2013-03-01 15:52:00,
2013-03-01 09:01:00,34.0,25.0,-100.00,NNW,345,7.0,8.0,70,-99.99,,,-99.99,,2013-03-01 16:01:00,
2013-03-01 09:11:00,34.0,25.0,-100.00,NNW,345,7.0,8.0,70,-99.99,,,-99.99,,2013-03-01 16:11:00,
2013-03-01 09:21:00,34.0,26.0,-100.00,North,352,5.0,8.0,69,-99.99,,,-99.99,,2013-03-01 16:21:00,
2013-03-01 09:31:00,34.0,26.0,-100.00,North,352,5.0,8.0,69,-99.99,,,-99.99,,2013-03-01 16:31:00,
2013-03-01 09:41:00,35.0,25.0,-100.00,NNW,338,5.0,7.0,66,-99.99,,,-99.99,,2013-03-01 16:41:00,
2013-03-01 09:51:00,35.0,25.0,-100.00,NNW,338,5.0,7.0,66,-99.99,,,-99.99,,2013-03-01 16:51:00,
2013-03-01 10:01:00,36.0,26.0,-100.00,NNW,331,5.0,7.0,65,-99.99,,,-99.99,,2013-03-01 17:01:00,
2013-03-01 10:11:00,36.0,26.0,-100.00,NNW,331,5.0,7.0,65,-99.99,,,-99.99,,2013-03-01 17:11:00,
2013-03-01 10:21:00,36.0,26.0,-100.00,NNW,331,5.0,7.0,65,-99.99,,,-99.99,,2013-03-01 17:21:00,
2013-03-01 10:31:00,36.0,26.0,-100.00,NW,316,4.0,6.0,64,-99.99,,,-99.99,,2013-03-01 17:31:00,
2013-03-01 10:41:00,37.0,25.0,-100.00,NW,304,7.0,8.0,61,-99.99,,,-99.99,,2013-03-01 17:41:00,
2013-03-01 10:52:00,37.0,25.0,-100.00,NNW,347,5.0,8.0,61,-99.99,,,-99.99,,2013-03-01 17:52:00,
2013-03-01 11:01:00,37.0,25.0,-100.00,NNW,347,5.0,8.0,61,-99.99,,,-99.99,,2013-03-01 18:01:00,
2013-03-01 11:11:00,38.0,26.0,-100.00,WNW,288,7.0,8.0,60,-99.99,,,-99.99,,2013-03-01 18:11:00,
2013-03-01 11:22:00,38.0,26.0,-100.00,WNW,288,7.0,8.0,60,-99.99,,,-99.99,,2013-03-01 18:22:00,
2013-03-01 11:31:00,38.0,26.0,-100.00,NE,44,6.0,8.0,60,-99.99,,,-99.99,,2013-03-01 18:31:00,
2013-03-01 11:41:00,38.0,26.0,-100.00,NE,44,6.0,8.0,60,-99.99,,,-99.99,,2013-03-01 18:41:00,
2013-03-01 11:52:00,38.0,25.0,-100.00,North,356,8.0,10.0,60,-99.99,,,-99.99,,2013-03-01 18:52:00,
2013-03-01 12:01:00,39.0,25.0,-100.00,NW,309,12.0,17.0,57,-99.99,,,-99.99,,2013-03-01 19:01:00,
2013-03-01 12:11:00,39.0,25.0,-100.00,NW,309,12.0,17.0,57,-99.99,,,-99.99,,2013-03-01 19:11:00,
2013-03-01 12:21:00,39.0,25.0,-100.00,NW,315,12.0,16.0,58,-99.99,,,-99.99,,2013-03-01 19:21:00,
2013-03-01 12:31:00,39.0,25.0,-100.00,NW,315,12.0,16.0,58,-99.99,,,-99.99,,2013-03-01 19:31:00,
2013-03-01 12:41:00,39.0,26.0,-100.00,NNW,340,12.0,15.0,57,-99.99,,,-99.99,,2013-03-01 19:41:00,
2013-03-01 12:51:00,39.0,26.0,-100.00,NNW,340,12.0,15.0,57,-99.99,,,-99.99,,2013-03-01 19:51:00,
2013-03-01 13:01:00,40.0,26.0,-100.00,NNW,331,13.0,14.0,56,-99.99,,,-99.99,,2013-03-01 20:01:00,
2013-03-01 13:11:00,40.0,26.0,-100.00,NNW,331,13.0,14.0,56,-99.99,,,-99.99,,2013-03-01 20:11:00,
2013-03-01 13:21:00,39.0,26.0,-100.00,NNW,333,11.0,14.0,59,-99.99,,,-99.99,,2013-03-01 20:21:00,
2013-03-01 13:31:00,40.0,26.0,-100.00,NW,322,6.0,15.0,57,-99.99,,,-99.99,,2013-03-01 20:31:00,
2013-03-01 13:41:00,40.0,26.0,-100.00,NW,322,6.0,15.0,57,-99.99,,,-99.99,,2013-03-01 20:41:00,
2013-03-01 13:52:00,41.0,28.0,-100.00,West,272,8.0,9.0,58,-99.99,,,-99.99,,2013-03-01 20:52:00,
2013-03-01 14:01:00,41.0,27.0,-100.00,West,281,5.0,10.0,56,-99.99,,,-99.99,,2013-03-01 21:01:00,
2013-03-01 14:11:00,41.0,27.0,-100.00,West,281,5.0,10.0,56,-99.99,,,-99.99,,2013-03-01 21:11:00,
2013-03-01 14:21:00,41.0,27.0,-100.00,WNW,290,8.0,10.0,57,-99.99,,,-99.99,,2013-03-01 21:21:00,
2013-03-01 14:31:00,42.0,28.0,-100.00,WNW,299,8.0,10.0,56,-99.99,,,-99.99,,2013-03-01 21:31:00,
2013-03-01 14:41:00,42.0,28.0,-100.00,WNW,299,8.0,10.0,56,-99.99,,,-99.99,,2013-03-01 21:41:00,
2013-03-01 14:51:00,41.0,27.0,-100.00,WNW,289,12.0,12.0,57,-99.99,,,-99.99,,2013-03-01 21:51:00,
2013-03-01 15:01:00,42.0,28.0,-100.00,NW,319,10.0,12.0,57,-99.99,,,-99.99,,2013-03-01 22:01:00,
2013-03-01 15:11:00,42.0,29.0,-100.00,NW,309,10.0,12.0,58,-99.99,,,-99.99,,2013-03-01 22:11:00,
2013-03-01 15:21:00,42.0,29.0,-100.00,NW,309,10.0,12.0,58,-99.99,,,-99.99,,2013-03-01 22:21:00,
2013-03-01 15:31:00,39.0,27.0,-100.00,WNW,297,19.0,22.0,60,-99.99,,,-99.99,,2013-03-01 22:31:00,
2013-03-01 15:41:00,39.0,27.0,-100.00,WNW,297,19.0,22.0,60,-99.99,,,-99.99,,2013-03-01 22:41:00,
2013-03-01 15:51:00,39.0,27.0,-100.00,WNW,292,25.0,25.0,62,-99.99,,,-99.99,,2013-03-01 22:51:00,
2013-03-01 16:01:00,39.0,26.0,-100.00,WNW,298,18.0,22.0,59,-99.99,,,-99.99,,2013-03-01 23:01:00,
2013-03-01 16:11:00,40.0,27.0,-100.00,WNW,295,19.0,20.0,61,-99.99,,,-99.99,,2013-03-01 23:11:00,
2013-03-01 16:21:00,40.0,27.0,-100.00,WNW,295,19.0,20.0,61,-99.99,,,-99.99,,2013-03-01 23:21:00,
2013-03-01 16:31:00,39.0,27.0,-100.00,West,279,18.0,21.0,61,-99.99,,,-99.99,,2013-03-01 23:31:00,
2013-03-01 16:41:00,40.0,27.0,-100.00,WNW,291,15.0,20.0,60,-99.99,,,-99.99,,2013-03-01 23:41:00,
2013-03-01 16:52:00,40.0,27.0,-100.00,WNW,291,15.0,20.0,60,-99.99,,,-99.99,,2013-03-01 23:52:00,
2013-03-01 17:01:00,39.0,26.0,-100.00,WNW,294,16.0,18.0,58,-99.99,,,-99.99,,2013-03-02 00:01:00,
2013-03-01 17:11:00,39.0,26.0,-100.00,WNW,297,16.0,17.0,58,-99.99,,,-99.99,,2013-03-02 00:11:00,
2013-03-01 17:21:00,39.0,26.0,-100.00,WNW,297,16.0,17.0,58,-99.99,,,-99.99,,2013-03-02 00:21:00,
2013-03-01 17:31:00,40.0,26.0,-100.00,WNW,298,11.0,16.0,58,-99.99,,,-99.99,,2013-03-02 00:31:00,
2013-03-01 17:41:00,39.0,27.0,-100.00,WNW,299,12.0,15.0,60,-99.99,,,-99.99,,2013-03-02 00:41:00,
2013-03-01 17:52:00,39.0,27.0,-100.00,WNW,299,12.0,15.0,60,-99.99,,,-99.99,,2013-03-02 00:52:00,
2013-03-01 18:01:00,38.0,26.0,-100.00,West,279,15.0,16.0,61,-99.99,,,-99.99,,2013-03-02 01:01:00,
2013-03-01 18:11:00,38.0,26.0,-100.00,WNW,286,15.0,15.0,62,-99.99,,,-99.99,,2013-03-02 01:11:00,
2013-03-01 18:21:00,38.0,26.0,-100.00,WNW,286,15.0,15.0,62,-99.99,,,-99.99,,2013-03-02 01:21:00,
2013-03-01 18:31:00,38.0,26.0,-100.00,WNW,286,15.0,15.0,62,-99.99,,,-99.99,,2013-03-02 01:31:00,
2013-03-01 18:41:00,36.0,26.0,-100.00,NW,304,14.0,14.0,66,-99.99,,,-99.99,,2013-03-02 01:41:00,
2013-03-01 18:51:00,36.0,26.0,-100.00,NW,304,14.0,14.0,66,-99.99,,,-99.99,,2013-03-02 01:51:00,
2013-03-01 19:01:00,36.0,26.0,-100.00,NW,304,14.0,14.0,66,-99.99,,,-99.99,,2013-03-02 02:01:00,
2013-03-01 19:11:00,35.0,26.0,-100.00,WNW,297,4.0,9.0,69,-99.99,,,-99.99,,2013-03-02 02:11:00,
2013-03-01 19:21:00,35.0,26.0,-100.00,NW,306,9.0,9.0,70,-99.99,,,-99.99,,2013-03-02 02:21:00,
2013-03-01 19:31:00,36.0,26.0,-100.00,NNW,346,3.0,6.0,68,-99.99,,,-99.99,,2013-03-02 02:31:00,
2013-03-01 19:41:00,35.0,26.0,-100.00,WNW,297,4.0,6.0,68,-99.99,,,-99.99,,2013-03-02 02:41:00,
2013-03-01 19:52:00,35.0,26.0,-100.00,WNW,297,4.0,6.0,68,-99.99,,,-99.99,,2013-03-02 02:52:00,
2013-03-01 20:01:00,35.0,26.0,-100.00,WNW,297,4.0,6.0,68,-99.99,,,-99.99,,2013-03-02 03:01:00,
2013-03-01 20:11:00,33.0,25.0,-100.00,West,279,6.0,9.0,71,-99.99,,,-99.99,,2013-03-02 03:11:00,
2013-03-01 20:21:00,33.0,25.0,-100.00,West,279,6.0,9.0,71,-99.99,,,-99.99,,2013-03-02 03:21:00,
2013-03-01 20:32:00,34.0,26.0,-100.00,SE,124,4.0,4.0,71,-99.99,,,-99.99,,2013-03-02 03:32:00,
2013-03-01 20:41:00,33.0,25.0,-100.00,SSE,166,3.0,4.0,71,-99.99,,,-99.99,,2013-03-02 03:41:00,
2013-03-01 20:52:00,33.0,25.0,-100.00,SSE,166,3.0,4.0,71,-99.99,,,-99.99,,2013-03-02 03:52:00,
2013-03-01 21:01:00,31.0,24.0,-100.00,NE,48,0.0,2.0,72,-99.99,,,-99.99,,2013-03-02 04:01:00,
2013-03-01 21:11:00,31.0,23.0,-100.00,South,185,1.0,2.0,73,-99.99,,,-99.99,,2013-03-02 04:11:00,
2013-03-01 21:21:00,31.0,23.0,-100.00,South,185,1.0,2.0,73,-99.99,,,-99.99,,2013-03-02 04:21:00,
2013-03-01 21:31:00,29.0,22.0,-100.00,North,0,0.0,3.0,75,-99.99,,,-99.99,,2013-03-02 04:31:00,
2013-03-01 21:41:00,29.0,22.0,-100.00,North,0,0.0,3.0,75,-99.99,,,-99.99,,2013-03-02 04:41:00,
2013-03-01 21:51:00,29.0,23.0,-100.00,West,259,1.0,2.0,77,-99.99,,,-99.99,,2013-03-02 04:51:00,
2013-03-01 22:01:00,29.0,23.0,-100.00,West,259,1.0,2.0,77,-99.99,,,-99.99,,2013-03-02 05:01:00,
2013-03-01 22:12:00,30.0,23.0,-100.00,ESE,109,0.0,3.0,75,-99.99,,,-99.99,,2013-03-02 05:12:00,
2013-03-01 22:22:00,30.0,23.0,-100.00,ESE,109,0.0,3.0,75,-99.99,,,-99.99,,2013-03-02 05:22:00,
2013-03-01 22:31:00,27.0,21.0,-100.00,NE,51,0.0,1.0,77,-99.99,,,-99.99,,2013-03-02 05:31:00,
2013-03-01 22:41:00,27.0,22.0,-100.00,NE,51,1.0,1.0,79,-99.99,,,-99.99,,2013-03-02 05:41:00,
2013-03-01 22:51:00,27.0,22.0,-100.00,NE,51,1.0,1.0,79,-99.99,,,-99.99,,2013-03-02 05:51:00,
2013-03-01 23:01:00,27.0,22.0,-100.00,NE,51,1.0,1.0,79,-99.99,,,-99.99,,2013-03-02 06:01:00,
2013-03-01 23:11:00,26.0,21.0,-100.00,ENE,58,4.0,4.0,80,-99.99,,,-99.99,,2013-03-02 06:11:00,
2013-03-01 23:21:00,26.0,21.0,-100.00,ENE,58,4.0,4.0,80,-99.99,,,-99.99,,2013-03-02 06:21:00,
2013-03-01 23:31:00,26.0,21.0,-100.00,ENE,58,4.0,4.0,80,-99.99,,,-99.99,,2013-03-02 06:31:00,
2013-03-01 23:41:00,25.0,20.0,-100.00,North,0,0.0,2.0,82,-99.99,,,-99.99,,2013-03-02 06:41:00,
2013-03-01 23:51:00,24.0,20.0,-100.00,North,354,1.0,1.0,82,-99.99,,,-99.99,,2013-03-02 06:51:00,